Scappoose, OR

10:37 PM PDT on May 26, 2017 (GMT -0700)
Scappoose Industrial

Weather History for KSPB - January, 2014

Change the Weather History Date:

Sunday, January 26, 2014

  Actual Average Record
Temperature  
Mean Temperature 36 °F -  
Max Temperature 48 °F - 61 °F (2003)
Min Temperature 24 °F - 23 °F (2008)
Degree Days  
Heating Degree Days 29    
Month to date heating degree days 640  
Since 1 July heating degree days 2776  
Cooling Degree Days 0    
Month to date cooling degree days 0  
Year to date cooling degree days 0  
Moisture  
Dew Point 28 °F    
Average Humidity 77    
Maximum Humidity 100    
Minimum Humidity 53    
Precipitation  
Precipitation 0.00 in - 0.36 in (2003)
Month to date precipitation 2.04  
Year to date precipitation 2.04  
Sea Level Pressure  
Sea Level Pressure 30.19 in    
Wind  
Wind Speed 2 mph (SSE)    
Max Wind Speed 8 mph    
Max Gust Speed 11 mph    
Visibility 9 miles    
Events      
T = Trace of Precipitation, MM = Missing Value Source: NWS Daily Summary

Daily Weather History Graph

Daily Weather History Graph

Search for Another Location

Airport or City:

Trip Planner

Search our weather history database for the weather conditions in past years. The results will help you decide how hot, cold, wet, or windy it might be!

Date:

Astronomy

Jan. 26, 2014 Rise Set
Actual Time 7:39 AM PST 5:08 PM PST
Civil Twilight 7:07 AM PST 5:41 PM PST
Nautical Twilight 6:31 AM PST 6:17 PM PST
Astronomical Twilight 5:56 AM PST 6:52 PM PST
Moon 3:24 AM PST (1/26) 1:01 PM PST (1/26)
Length of Visible Light 10h 33m
Length of Day
9h 29m
Waning Crescent, 23% of the Moon is Illuminated
Jan 26
Waning Crescent
Jan 30
New
Feb 6
First Quarter
Feb 14
Full
Feb 22
Last Quarter

Hourly Weather History & Observations

Time (PST) Temp. Windchill Dew Point Humidity Pressure Visibility Wind Dir Wind Speed Gust Speed Precip Events Conditions
12:53 AM 28.0 °F - 27.0 °F 96% 30.27 in 7.0 mi Calm Calm - N/A   Clear
1:53 AM 28.0 °F - 26.1 °F 92% 30.27 in 8.0 mi Calm Calm - N/A   Clear
2:53 AM 27.0 °F - 25.0 °F 92% 30.27 in 9.0 mi Calm Calm - N/A   Clear
3:53 AM 27.0 °F 23.0 °F 26.1 °F 96% 30.26 in 8.0 mi West 3.5 mph - N/A   Clear
4:53 AM 27.0 °F - 25.0 °F 92% 30.25 in 10.0 mi Calm Calm - N/A   Clear
5:53 AM 26.1 °F - 24.1 °F 92% 30.25 in 7.0 mi Calm Calm - N/A   Clear
6:53 AM 25.0 °F - 24.1 °F 96% 30.24 in 9.0 mi Calm Calm - N/A   Clear
7:53 AM 26.1 °F - 24.1 °F 92% 30.23 in 5.0 mi Calm Calm - N/A   Clear
8:53 AM 30.0 °F - 28.9 °F 96% 30.22 in 10.0 mi Calm Calm - N/A   Clear
9:53 AM 35.1 °F - 32.0 °F 89% 30.22 in 10.0 mi Calm Calm - N/A   Clear
10:53 AM 37.9 °F - 30.9 °F 76% 30.21 in 10.0 mi Calm Calm - N/A   Clear
11:53 AM 39.9 °F 37.8 °F 30.9 °F 70% 30.18 in 10.0 mi Variable 3.5 mph - N/A   Clear
12:53 PM 43.0 °F 39.5 °F 30.9 °F 62% 30.16 in 10.0 mi East 5.8 mph - N/A   Clear
1:53 PM 46.0 °F 43.1 °F 32.0 °F 58% 30.14 in 10.0 mi ESE 5.8 mph - N/A   Clear
2:53 PM 46.9 °F - 30.9 °F 54% 30.12 in 10.0 mi ESE 3.5 mph - N/A   Clear
3:53 PM 46.9 °F - 30.9 °F 54% 30.11 in 10.0 mi SSE 5.8 mph - N/A   Clear
4:53 PM 43.0 °F - 30.0 °F 60% 30.11 in 10.0 mi Calm Calm - N/A   Clear
5:53 PM 39.0 °F 35.7 °F 28.0 °F 65% 30.12 in 10.0 mi South 4.6 mph - N/A   Clear
6:53 PM 36.0 °F 32.1 °F 27.0 °F 70% 30.13 in 10.0 mi SSE 4.6 mph - N/A   Clear
7:53 PM 33.1 °F - 28.0 °F 82% 30.13 in 10.0 mi Calm Calm - N/A   Clear
8:53 PM 32.0 °F - 28.0 °F 85% 30.13 in 10.0 mi Calm Calm - N/A   Clear
9:53 PM 30.0 °F - 28.0 °F 92% 30.14 in 10.0 mi Calm Calm - N/A   Clear
10:53 PM 28.0 °F - 27.0 °F 96% 30.16 in 10.0 mi Calm Calm - N/A   Clear
11:53 PM 32.0 °F 27.5 °F 26.1 °F 79% 30.16 in 10.0 mi SSW 4.6 mph - N/A   Clear